www.pogodaiklimat.ru

Погода и климат >> Архив погоды >> Япония >> Киото


ПОГОДА в Киото

  • Прогноз погоды в Киото
  • Монитор погоды в Киото

АРХИВ ПОГОДЫ в Киото

Время (UTC), дата Ветер
(напр.,м/с)
 
Видим.   Явления Облачность Т
(С)
Тd
(С)
f
(%)
Тe
(С)
Тes
(С)
Комфортность P
(гПа)
Po
(гПа)
Тmin
(С)
Tmax
(С)
R
(мм)
R24
(мм)
S
(см)
22 10.06 В 1 н/о н/о +19.2 +14.7 75 +22 +22 комфорт 1006.2 1000.1
23 10.06 З 1 н/о н/о +20.3 +14.4 69 +24 +24 комфорт 1006.2 1000.1
00 11.06 Ю 1 20 км 9/9
[Cu Sc Ci fib]
+22.0 +14.9 64 +25 +27 комфорт 1006.1 1000.1 +17.9
01 11.06 СЗ 2 н/о н/о +22.9 +14.7 60 +27 +27 душно 1005.9 999.9
02 11.06 СЗ 1 н/о н/о +23.3 +14.3 57 +27 +27 душно 1005.7 999.7
03 11.06 СЗ 2 н/о н/о +24.5 +14.3 53 +27 +27 жарко 1005.2 999.2
04 11.06 В 2 н/о н/о +25.7 +14.5 50 +28 +28 жарко 1004.3 998.3
05 11.06 В 2 н/о н/о +25.2 +14.7 52 +28 +28 жарко 1003.9 997.9
06 11.06 В 2 15 км 9/9
[Cu med, cong]
+25.5 +14.6 51 +28 +29 жарко 1003.5 997.5
07 11.06 СЗ 1 н/о н/о +24.5 +17.0 63 +28 +28 душно 1003.1 997.1
08 11.06 С 4 н/о н/о +22.7 +18.3 76 +28 +28 душно 1003.5 997.5
09 11.06 С 4 н/о н/о +21.9 +16.6 72 +26 +26 душно 1004.2 998.2
10 11.06 С 3 н/о н/о +21.3 +15.8 71 +25 +25 комфорт 1005.2 999.1
11 11.06 С 3 н/о н/о +21.0 +15.6 71 +25 +25 комфорт 1005.7 999.6
12 11.06 СВ 2 15 км {гроза, ливн. осадки} 10/9
[Cu med, cong Ac As]
+20.9 +15.9 73 +25 +25 комфорт 1006.4 1000.3 +26.5 2
13 11.06 С 2 н/о н/о +20.4 +15.0 71 +24 +24 комфорт 1006.9 1000.8
14 11.06 З 1 н/о н/о +19.8 +15.0 74 +23 +23 комфорт 1006.6 1000.5
15 11.06 С 1 н/о н/о +19.6 +15.3 76 +23 +23 комфорт 1006.5 1000.4
16 11.06 СЗ 1 н/о н/о +19.2 +15.3 78 +22 +22 комфорт 1006.3 1000.2
17 11.06 СЗ 2 н/о н/о +19.0 +15.3 79 +21 +21 комфорт 1006.5 1000.4
18 11.06 З 2 20 км в посл. час ливневой дождь 10/9
[Cu med, cong Ac As]
+18.6 +15.3 81 +20 +20 1006.6 1000.5 0.0
19 11.06 З 1 н/о н/о +18.6 +15.5 82 +21 +21 комфорт 1006.8 1000.7
20 11.06 З 2 н/о н/о +18.4 +15.1 81 +20 +20 1007.2 1001.1
21 11.06 З 2 н/о н/о +18.8 +15.5 81 +21 +21 комфорт 1007.5 1001.4
22 11.06 СВ 1 н/о н/о +19.4 +15.1 76 +22 +22 комфорт 1007.9 1001.8
23 11.06 ЮВ 1 н/о н/о +21.1 +15.2 69 +24 +24 комфорт 1008.0 1001.9
00 12.06 Ю 1 25 км 5/5
[Cu med, cong]
+23.4 +15.7 62 +28 +35 душно 1007.6 1001.6 +18.4 0.0
01 12.06 С 2 н/о н/о +23.0 +13.5 55 +26 +26 жарко 1007.5 1001.5
02 12.06 СЗ 3 н/о н/о +23.9 +13.8 53 +26 +26 жарко 1007.5 1001.5
03 12.06 СЗ 3 н/о н/о +25.0 +12.9 47 +27 +27 жарко 1007.0 1001.0
04 12.06 СЗ 3 н/о н/о +25.2 +12.1 44 +27 +27 жарко 1007.0 1001.0
05 12.06 С 4 н/о н/о +25.7 +13.2 46 +28 +28 жарко 1006.5 1000.5
06 12.06 С 5 35 км {ливн. осадки} 5/5
[Cu med, cong]
+26.7 +13.5 44 +29 +32 жарко 1006.4 1000.5 0.0
07 12.06 СЗ 5 н/о н/о +25.6 +14.1 49 +28 +28 жарко 1006.8 1000.8
08 12.06 С 3 н/о н/о +25.1 +13.3 48 +27 +27 жарко 1007.0 1001.0
09 12.06 С 5 н/о н/о +23.8 +13.1 51 +26 +26 жарко 1007.5 1001.5
10 12.06 С 5 н/о н/о +22.1 +13.2 57 +25 +25 комфорт 1008.6 1002.5
11 12.06 СЗ 3 н/о н/о +21.2 +13.4 61 +24 +24 комфорт 1009.5 1003.4
12 12.06 СЗ 2 20 км 3/3
[Cu Sc]
+20.8 +13.5 63 +24 +24 комфорт 1010.4 1004.3 +27.0 0.0
13 12.06 СЗ 3 н/о н/о +20.3 +14.2 68 +23 +23 комфорт 1010.7 1004.6
14 12.06 СЗ 2 н/о н/о +19.8 +14.4 71 +22 +22 комфорт 1010.7 1004.6
15 12.06 С 1 н/о н/о +19.4 +14.2 72 +22 +22 комфорт 1011.0 1004.9
16 12.06 СВ 1 н/о н/о +18.6 +14.3 76 +20 +20 1011.1 1004.9
17 12.06 С 1 н/о н/о +18.4 +14.3 77 +20 +20 1011.0 1004.8
18 12.06 СВ 1 20 км ясно +17.9 +14.2 79 +19 +19 1011.1 1004.9
19 12.06 С 2 н/о н/о +17.3 +14.0 81 +18 +18 1011.3 1005.1
20 12.06 СВ 1 н/о н/о +17.3 +14.2 82 +18 +18 1011.6 1005.4
21 12.06 СВ 2 н/о н/о +17.7 +14.0 79 +18 +18 1012.2 1006.0
22 12.06 В 1 н/о н/о +20.0 +14.2 69 +24 +24 комфорт 1012.3 1006.2
23 12.06 В 1 н/о н/о +21.5 +14.4 64 +24 +24 комфорт 1012.5 1006.4
00 13.06 В 3 30 км 4/4
[Cu hum]
+23.9 +13.8 53 +26 +33 жарко 1012.7 1006.7 +17.0
01 13.06 В 2 н/о н/о +24.9 +13.5 49 +27 +27 жарко 1012.5 1006.5
02 13.06 ЮЗ 2 н/о н/о +25.8 +13.0 45 +28 +28 жарко 1011.9 1005.9
03 13.06 С 2 н/о н/о +26.9 +12.9 42 +29 +29 жарко 1011.4 1005.4
04 13.06 ЮВ 2 н/о н/о +28.5 +12.8 38 +30 +30 жарко 1010.5 1004.6
05 13.06 С 2 н/о н/о +28.8 +11.8 35 +30 +30 жарко 1010.0 1004.1
07 13.06 ЮВ 3 н/о н/о +30.2 +13.5 36 +32 +32 жарко 1009.1 1003.2
08 13.06 В 4 н/о н/о +29.1 +14.5 41 +31 +31 жарко 1009.1 1003.2
09 13.06 В 3 н/о н/о +27.7 +15.7 48 +31 +31 душно 1009.6 1003.7
10 13.06 ЮВ 4 н/о н/о +26.3 +16.3 54 +30 +30 душно 1010.6 1004.6
11 13.06 ЮВ 3 н/о н/о +25.5 +16.6 58 +29 +29 душно 1011.2 1005.2
12 13.06 ЮВ 3 25 км 8/8
[Cu med, cong]
+24.6 +15.3 56 +28 +28 душно 1012.0 1006.0 +30.8
13 13.06 СВ 2 н/о н/о +23.9 +15.4 59 +27 +27 жарко 1012.3 1006.3
14 13.06 СВ 3 н/о н/о +23.0 +16.6 67 +28 +28 душно 1012.7 1006.6
15 13.06 С 3 н/о н/о +22.5 +17.0 71 +27 +27 душно 1012.8 1006.7
16 13.06 СВ 2 н/о н/о +22.5 +16.8 70 +27 +27 душно 1012.6 1006.5
17 13.06 СВ 3 н/о н/о +22.1 +16.8 72 +26 +26 душно 1012.4 1006.3
18 13.06 СВ 2 25 км 5/1
[Cu Sc Ci fib]
+22.0 +17.4 75 +26 +26 душно 1012.0 1005.9
19 13.06 СВ 2 н/о н/о +21.9 +17.7 77 +26 +26 душно 1011.4 1005.3
20 13.06 СВ 3 н/о н/о +22.0 +17.8 77 +27 +27 душно 1011.6 1005.5
21 13.06 В 3 н/о н/о +22.2 +17.6 75 +27 +27 душно 1011.6 1005.5
22 13.06 В 3 н/о н/о +22.6 +17.3 72 +27 +27 душно 1011.3 1005.2
23 13.06 В 3 н/о н/о +22.8 +17.3 71 +28 +28 душно 1011.4 1005.3
00 14.06 В 4 35 км в посл. час ливневой дождь 10/10
[Cu med, cong]
+23.2 +17.0 68 +28 +28 душно 1011.0 1004.9 +21.8 0.0
02 14.06 В 5 н/о н/о +24.3 +16.1 60 +28 +28 душно 1010.3 1004.3
03 14.06 СВ 4 н/о н/о +23.6 +17.4 68 +27 +27 жарко 1010.4 1004.4
04 14.06 СВ 3 н/о н/о +22.6 +18.4 77 +28 +28 душно 1009.9 1003.8
05 14.06 В 4 н/о н/о +22.3 +17.9 76 +27 +27 душно 1009.6 1003.5
06 14.06 В 2 25 км в посл. час ливневой дождь 10/9
[Cu med, cong Ac As]
+22.9 +17.4 71 +28 +28 душно 1008.5 1002.5 2
07 14.06 В 3 н/о н/о +23.3 +17.1 68 +28 +28 душно 1008.0 1002.0
08 14.06 В 4 н/о н/о +23.6 +17.1 67 +27 +27 жарко 1007.2 1001.2
09 14.06 В 5 н/о н/о +23.3 +17.5 70 +29 +29 душно 1007.6 1001.6
10 14.06 В 5 н/о н/о +22.8 +15.9 65 +27 +27 душно 1007.1 1001.1
11 14.06 В 4 н/о н/о +22.3 +15.9 67 +26 +26 жарко 1007.2 1001.2
12 14.06 В 5 20 км слаб. дождь 10/5
[Frnb Ac As]
+22.0 +15.4 66 +26 +26 душно 1007.3 1001.2 +26.0 2
13 14.06 СВ 5 н/о н/о +21.7 +15.8 69 +25 +25 комфорт 1006.5 1000.4
14 14.06 В 5 н/о н/о +21.0 +16.2 74 +25 +25 комфорт 1005.4 999.3
15 14.06 СВ 4 н/о н/о +19.8 +17.2 85 +22 +22 комфорт 1004.7 998.6
16 14.06 В 4 н/о н/о +19.2 +16.8 86 +21 +21 комфорт 1003.6 997.5
17 14.06 СВ 5 н/о н/о +19.0 +16.6 86 +20 +20 1002.4 996.3
18 14.06 В 4 10 км слаб. дождь 10/8
[Frnb Ac As]
+18.7 +16.1 85 +20 +20 1002.0 995.9 5
19 14.06 СВ 5 н/о н/о +18.4 +15.8 85 +19 +19 1001.4 995.3
20 14.06 СВ 3 н/о н/о +18.2 +15.7 85 +19 +19 1000.6 994.5
21 14.06 В 3 н/о н/о +18.5 +15.9 85 +19 +19 1000.0 993.9
22 14.06 В 4 н/о н/о +19.0 +15.1 78 +20 +20 999.1 993.0
23 14.06 В 6 н/о н/о +20.4 +14.5 69 +23 +23 комфорт 997.4 991.4
00 15.06 В 3 25 км {дождь} 10/9
[Cu med, cong Ac As]
+20.8 +14.5 67 +24 +25 комфорт 996.9 990.9 +18.0 8
01 15.06 В 5 н/о н/о +22.0 +14.2 61 +25 +25 комфорт 995.8 989.8
02 15.06 ЮВ 4 н/о н/о +23.0 +14.3 58 +27 +27 душно 994.6 988.6
03 15.06 ЮВ 4 н/о н/о +22.8 +15.2 62 +27 +27 душно 992.8 986.8
04 15.06 В 4 н/о н/о +23.1 +15.4 62 +27 +27 душно 991.4 985.5
05 15.06 В 4 н/о н/о +22.5 +16.1 67 +27 +27 душно 990.6 984.7
06 15.06 СВ 4 35 км {дождь} 9/9
[Cu med, cong Ac As]
+22.7 +16.7 69 +27 +28 душно 988.1 982.2 0.0
07 15.06 В 5 н/о н/о +22.9 +17.2 70 +28 +28 душно 987.1 981.2
08 15.06 С 4 н/о н/о +21.3 +18.7 85 +26 +26 душно 986.3 980.4
09 15.06 СВ 2 н/о н/о +21.7 +18.7 83 +27 +27 душно 987.0 981.1
10 15.06 З 4 н/о н/о +19.9 +19.1 95 +23 +23 комфорт 987.4 981.4
11 15.06 З 4 н/о н/о +19.5 +16.7 84 +22 +22 комфорт 988.4 982.4
12 15.06 З 2 8000 м ливневой дождь {гроза} 10/10
[Cu med, cong]
+18.6 +17.1 91 +20 +20 989.8 983.8 +23.7 6
13 15.06 З 2 н/о н/о +18.7 +16.9 89 +20 +20 990.6 984.6
14 15.06 З 4 н/о н/о +18.7 +16.7 88 +20 +20 991.6 985.6
15 15.06 З 3 н/о н/о +18.9 +15.8 82 +20 +20 992.1 986.1
16 15.06 З 3 н/о н/о +18.7 +15.4 81 +20 +20 992.9 986.9
17 15.06 З 3 н/о н/о +18.9 +15.4 80 +20 +20 993.9 987.9
18 15.06 З 2 15 км слаб. ливневой дождь 9/9
[Cu med, cong]
+18.7 +16.0 84 +20 +20 994.6 988.5 2
19 15.06 Ю 3 н/о н/о +18.5 +16.5 88 +19 +19 995.5 989.4
20 15.06 ЮЗ 3 н/о н/о +18.7 +16.0 84 +20 +20 996.8 990.7
21 15.06 ЮЗ 2 н/о н/о +18.9 +15.8 82 +21 +21 комфорт 997.6 991.5
22 15.06 З 4 н/о н/о +19.5 +15.4 77 +21 +21 комфорт 998.5 992.4
23 15.06 З 3 н/о н/о +20.4 +15.4 73 +23 +23 комфорт 999.3 993.3
00 16.06 З 3 20 км в посл. час ливневой дождь 9/8
[Cu med, cong Ac As]
+21.2 +15.5 70 +24 +26 комфорт 1000.0 994.0 +18.2 2
01 16.06 З 4 н/о н/о +23.9 +14.0 54 +26 +26 жарко 1000.6 994.6
02 16.06 З 4 н/о н/о +24.1 +13.0 50 +26 +26 жарко 1001.0 995.0
03 16.06 СЗ 5 н/о н/о +23.5 +12.5 50 +25 +25 комфорт 1001.2 995.2
04 16.06 З 3 н/о н/о +23.5 +12.5 50 +25 +25 комфорт 1001.7 995.7
05 16.06 З 4 н/о н/о +23.4 +13.0 52 +26 +26 жарко 1002.2 996.2
06 16.06 СЗ 5 8000 м слаб. ливневой дождь 9/9
[Cu med, cong]
+19.6 +15.7 78 +21 +22 комфорт 1004.1 998.0 0.0
07 16.06 СЗ 3 н/о н/о +21.5 +14.9 66 +25 +25 комфорт 1004.5 998.4
08 16.06 З 3 н/о н/о +21.8 +14.2 62 +25 +25 комфорт 1004.8 998.8
09 16.06 З 4 н/о н/о +21.1 +13.0 60 +23 +23 комфорт 1005.6 999.5
10 16.06 СЗ 3 н/о н/о +19.9 +13.6 67 +22 +22 комфорт 1006.8 1000.7
11 16.06 З 3 н/о н/о +18.7 +13.8 73 +20 +20 1007.5 1001.4
12 16.06 СЗ 3 15 км в посл. час ливневой дождь 8/8
[Cu med, cong]
+18.8 +12.8 68 +20 +20 1008.6 1002.5 +24.1 0.0
13 16.06 З 2 н/о н/о +18.1 +13.4 74 +19 +19 1009.1 1002.9
14 16.06 З 3 н/о н/о +18.0 +13.5 75 +18 +18 1010.0 1003.8
15 16.06 ЮЗ 1 н/о н/о +17.5 +13.8 79 +19 +19 1010.1 1003.9
16 16.06 СЗ 2 н/о н/о +17.6 +13.5 77 +18 +18 1010.0 1003.8
17 16.06 З 2 н/о н/о +17.4 +13.5 78 +18 +18 1010.0 1003.8
18 16.06 СЗ 2 20 км в посл. час ливневой дождь 9/9
[Cu med, cong]
+17.4 +13.7 79 +18 +18 1010.7 1004.5 0.0
19 16.06 СЗ 1 н/о н/о +17.3 +13.6 79 +18 +18 1011.6 1005.4
20 16.06 С 4 н/о н/о +17.7 +12.8 73 +18 +18 1012.0 1005.8
21 16.06 СЗ 2 н/о н/о +18.0 +12.7 71 +19 +19 1012.4 1006.2
22 16.06 СЗ 4 н/о н/о +19.0 +12.0 64 +20 +20 1012.6 1006.4
23 16.06 С 4 н/о н/о +20.1 +11.6 58 +22 +22 комфорт 1012.8 1006.7
00 17.06 СЗ 2 25 км {ливн. осадки} 9/5
[Cu hum Ci sp]
+20.7 +11.6 56 +23 +29 комфорт 1012.8 1006.7 +17.2 0.0
01 17.06 СЗ 2 н/о н/о +22.2 +11.3 50 +24 +24 комфорт 1012.7 1006.6
02 17.06 СЗ 3 н/о н/о +24.1 +12.1 47 +26 +26 жарко 1013.0 1007.0
03 17.06 З 2 н/о н/о +24.1 +11.1 44 +25 +25 комфорт 1012.6 1006.6
04 17.06 З 2 н/о н/о +24.8 +12.1 45 +26 +26 жарко 1012.2 1006.2
05 17.06 З 3 н/о н/о +25.0 +11.6 43 +26 +26 жарко 1011.9 1005.9
06 17.06 С 3 35 км 5/5
[Cu med, cong Ci fib]
+25.8 +11.2 40 +27 +33 жарко 1011.5 1005.5
07 17.06 С 3 н/о н/о +26.0 +11.7 41 +27 +27 жарко 1011.4 1005.4
08 17.06 СЗ 4 н/о н/о +26.1 +11.1 39 +27 +27 жарко 1011.3 1005.3
09 17.06 С 3 н/о н/о +24.7 +12.0 45 +26 +26 жарко 1011.6 1005.6
10 17.06 С 3 н/о н/о +23.7 +12.4 49 +26 +26 жарко 1012.0 1006.0
11 17.06 СВ 3 н/о н/о +22.2 +12.5 54 +25 +25 комфорт 1012.5 1006.4
12 17.06 СВ 2 30 км 9/0
[Ci fib]
+21.3 +12.7 58 +24 +24 комфорт 1012.9 1006.8 +27.0
13 17.06 В 2 н/о н/о +20.4 +12.4 60 +23 +23 комфорт 1013.8 1007.7
14 17.06 СВ 2 н/о н/о +19.4 +11.9 62 +21 +21 комфорт 1013.7 1007.5
15 17.06 СВ 1 н/о н/о +18.8 +11.6 63 +21 +21 комфорт 1013.7 1007.5
16 17.06 СВ 2 н/о н/о +18.4 +11.7 65 +19 +19 1013.6 1007.4
18 17.06 С 2 20 км 9/0
[Ci sp]
+17.7 +12.2 70 +18 +18 1013.6 1007.4
19 17.06 С 2 н/о н/о +17.2 +12.5 74 +18 +18 1013.3 1007.1
20 17.06 СВ 1 н/о н/о +17.0 +12.3 74 +18 +18 1013.7 1007.5

 

Местоположение метеостанции Киото (Япония): широта 35.02 долгота 135.73 высота над уровнем моря 46 м.

В архиве по умолчанию представлена погода в Киото за последнюю неделю. Архивные данные за месяц целиком и за предыдущие месяцы, начиная с января 2011 года, Вы можете получить, выбрав интересующий диапазон дат из раскрывающегося списка и нажав кнопку "Ввод!".


*Определитесь, кто Вы:
робот инопланетянин человек

Внимание! Время в таблицах - всемирное. Для получения местного времени необходимо прибавить поправку, которая равна 9 ч.

Смотрите также архив погоды в соседних городах и на ближайших метеорологических станциях:

Погода в Наре (Япония) (37 км)
Погода в Осаке (Япония) (43 км)
Погода в Уэно (Япония) (47 км)
Погода в Хиконе (Япония) (55 км)
Погода в Кобе (Япония) (59 км)
Погода в Майдзуру (Япония) (61 км)
Погода в Цуруге (Япония) (76 км)
Погода в Йоккаити (Япония) (78 км)
Погода в Цу (Япония) (78 км)
Погода в Химедзи (Япония) (100 км)

Пояснения к столбцам:

Ветер - указаны скорость ветра в м/с - средняя за 10 мин, порывы в срок и между сроками (в фигурных скобках) и направление, откуда дует ветер: С - северный, СВ - северо-восточный, В - восточный, ЮВ - юго-восточный, Ю - южный, ЮЗ - юго-западный, З - западный, СЗ - северо-западный.
Видимость - горизонтальная дальность видимости в метрах или километрах. При видимости от 1 до 10 км при отсутствии осадков обычно наблюдается дымка, при ухудшении видимости до 1 км и менее - туман. В сухую погоду видимость может ухудшаться дымом, пылью или мглою.
Явления - указаны атмосферные явления, наблюдавшиеся в срок или в последний час перед сроком; фигурными скобками обозначены явления, наблюдавшиеся между сроками (за 1-3 часа до срока); квадратными скобками обозначены град или гололедные отложения с указанием их диаметра в мм.
Облачность - указаны через наклонную черту общая и нижняя облачность в баллах и высота нижней границы облаков в метрах; квадратными скобками обозначены формы облаков: Ci - перистые, Cs - перисто-слоистые, Cc - перисто-кучевые, Ac - высококучевые, As - высокослоистые, Sc - слоисто-кучевые, Ns - слоисто-дождевые, Cu - кучевые, Cb - кучево-дождевые. Подробнее классификацию облаков см. в Атласе облаков (PDF).
T - Температура воздуха - температура, измеренная на высоте 2 м над землей.
Td - Температура точки росы - температура, при понижении до которой содержащийся в воздухе водяной пар достигнет насыщения.
f - Относительная влажность воздуха - влажноcть воздуха, измеренная на высоте 2 м над землей.
Te - Эффективная температура - температура, которую ощущает одетый по сезону человек в тени. Характеристика душности погоды. При расчете учитывается влияние влажности воздуха и скорости ветра на теплоощущения человека.
Tes - Эффективная температура на солнце - температура, которую ощущает человек, с поправкой на солнечный нагрев. Характеристика знойности погоды. Зависит от высоты солнца над горизонтом, облачности и скорости ветра. Ночью, в пасмурную погоду, а также при ветре 12 м/с и более поправка равна нулю.
P - Атмосферное давление - приведенное к уровню моря атмосферное давление.
Po - Атмосферное давление - измеренное на уровне метеостанции атмосферное давление.
Tmin - Минимальная температура - минимум температуры воздуха на высоте 2 м над землей.
Tmax - Максимальная температура - максимум температуры воздуха на высоте 2 м над землей.
R - Количество осадков - Количество выпавших осадков за период времени, мм. При наведении курсора мыши на число - период времени, за который выпало указанное количество осадков.
R24 - Количество осадков - Количество выпавших осадков за 24 часа, мм.
S - Снежный покров - Высота снежного покрова, см. При наведении курсора мыши на число - состояние снежного покрова и степень покрытия местности в баллах.